KB3HLL Weather Reports


time (UTC)temp
F
wind
direction
speed
knots
gust
knots
rain 1hr
in
rain 24hr
in
rain mn
in
humidity
%
barometer
mb
20260504050618 46 311 3.5 6.1 0.00 0.00 0.00 64 1013.9
20260504050118 47 297 1.7 2.6 0.00 0.00 0.00 63 1014.0
20260504045619 47 286 3.5 6.1 0.00 0.00 0.00 63 1014.1
20260504045117 47 296 2.6 4.3 0.00 0.00 0.00 63 1014.0
20260504044619 47 320 3.5 5.2 0.00 0.00 0.00 63 1014.0
20260504044117 47 308 3.5 5.2 0.00 0.00 0.00 62 1014.0
20260504043617 47 306 2.6 4.3 0.00 0.00 0.00 62 1014.0
20260504043117 47 285 2.6 3.5 0.00 0.00 0.00 62 1014.1
20260504042617 47 329 2.6 7.0 0.00 0.00 0.00 62 1014.1
20260504042117 47 311 2.6 4.3 0.00 0.00 0.00 61 1014.0
20260504041618 47 308 1.7 2.6 0.00 0.00 0.00 61 1014.0
20260504041118 47 287 3.5 6.1 0.00 0.00 0.00 61 1014.0
20260504040617 47 288 2.6 3.5 0.00 0.00 0.00 61 1014.0
20260504040119 47 299 2.6 3.5 0.00 0.00 0.00 61 1014.0
20260504035617 47 295 3.5 4.3 0.00 0.00 0.00 61 1014.0
20260504035118 48 307 3.5 5.2 0.00 0.00 0.00 60 1014.0
20260504034618 48 309 1.7 3.5 0.00 0.00 0.00 60 1014.0
20260504034117 48 290 2.6 5.2 0.00 0.00 0.00 60 1014.0
20260504033617 48 287 3.5 5.2 0.00 0.00 0.00 60 1014.1
20260504033117 48 305 1.7 3.5 0.00 0.00 0.00 59 1014.0
20260504032617 48 289 3.5 4.3 0.00 0.00 0.00 59 1014.1
20260504032117 48 297 1.7 2.6 0.00 0.00 0.00 59 1014.0
20260504031620 48 309 1.7 3.5 0.00 0.00 0.00 60 1014.0
20260504031119 48 303 2.6 5.2 0.00 0.00 0.00 59 1014.0
20260504030617 48 284 2.6 3.5 0.00 0.00 0.00 59 1014.0
20260504030118 48 290 1.7 2.6 0.00 0.00 0.00 59 1014.0
20260504025617 48 309 1.7 2.6 0.00 0.00 0.00 59 1014.1
20260504025117 48 315 0.9 2.6 0.00 0.00 0.00 59 1014.0
20260504024618 48 292 1.7 1.7 0.00 0.00 0.00 58 1014.1
20260504024122 48 328 1.7 1.7 0.00 0.00 0.00 58 1014.1
20260504023617 48 290 1.7 3.5 0.00 0.00 0.00 58 1014.1
20260504023117 48 279 2.6 2.6 0.00 0.00 0.00 59 1014.1
20260504022617 48 290 2.6 4.3 0.00 0.00 0.00 59 1014.1
20260504022117 49 327 0.9 1.7 0.00 0.00 0.00 59 1014.0
20260504021618 49 304 2.6 4.3 0.00 0.00 0.00 58 1014.0
20260504021118 49 328 1.7 3.5 0.00 0.00 0.00 58 1014.1
20260504020617 49 310 2.6 3.5 0.00 0.00 0.00 58 1014.1
20260504020118 49 293 1.7 2.6 0.00 0.00 0.00 58 1014.0
20260504015617 49 271 1.7 3.5 0.00 0.00 0.00 57 1014.0
20260504015117 49 290 1.7 1.7 0.00 0.00 0.00 58 1014.0
20260504014617 49 302 1.7 2.6 0.00 0.00 0.00 58 1014.1
20260504014117 49 306 1.7 2.6 0.00 0.00 0.00 58 1014.1
20260504013617 49 292 1.7 3.5 0.00 0.00 0.00 58 1014.0
20260504013117 49 351 0.9 1.7 0.00 0.00 0.00 58 1014.0
20260504012617 49 347 0.0 0.9 0.00 0.00 0.00 57 1013.9
20260504012117 49 284 1.7 3.5 0.00 0.00 0.00 57 1013.9
20260504011618 49 293 1.7 2.6 0.00 0.00 0.00 57 1013.9
20260504011117 49 286 1.7 2.6 0.00 0.00 0.00 57 1013.6
20260504010617 49 322 2.6 3.5 0.00 0.00 0.00 57 1013.6
20260504010118 49 274 1.7 2.6 0.00 0.00 0.00 56 1013.6
20260504005618 49 326 0.9 1.7 0.00 0.00 0.00 56 1013.5
20260504005118 49 315 2.6 3.5 0.00 0.00 0.00 56 1013.4
20260504004617 49 320 0.9 0.9 0.00 0.00 0.00 55 1013.5
20260504004117 50 295 2.6 3.5 0.00 0.00 0.00 55 1013.4
20260504003618 50 294 0.0 0.9 0.00 0.00 0.00 55 1013.4
20260504003117 50 303 1.7 3.5 0.00 0.00 0.00 54 1013.4
20260504002618 50 281 1.7 2.6 0.00 0.00 0.00 55 1013.1
20260504002118 50 320 1.7 2.6 0.00 0.00 0.00 55 1013.3
20260504001622 50 299 1.7 1.7 0.00 0.00 0.00 54 1013.1
20260504001117 51 302 1.7 3.5 0.00 0.00 0.00 53 1013.1
20260504000618 51 303 1.7 2.6 0.00 0.00 0.00 53 1013.3
20260504000117 51 321 2.6 4.3 0.00 0.00 0.00 54 1013.1
20260503235617 51 290 1.7 3.5 0.00 0.00 0.00 53 1013.1
20260503235117 51 309 1.7 4.3 0.00 0.00 0.00 53 1013.1
20260503234130 51 316 3.5 4.3 0.00 0.00 0.00 52 1013.0
20260503233617 52 300 0.9 1.7 0.00 0.00 0.00 53 1013.0
20260503233118 52 337 1.7 3.5 0.00 0.00 0.00 53 1013.0
20260503232617 52 282 2.6 5.2 0.00 0.00 0.00 51 1012.9
20260503232118 53 323 1.7 4.3 0.00 0.00 0.00 52 1012.9
20260503231618 53 330 1.7 4.3 0.00 0.00 0.00 52 1013.0
20260503231117 53 278 1.7 2.6 0.00 0.00 0.00 51 1012.9
20260503230617 53 293 1.7 6.1 0.00 0.00 0.00 51 1012.9
20260503230119 53 307 1.7 3.5 0.00 0.00 0.00 49 1012.9
20260503225617 54 305 3.5 4.3 0.00 0.00 0.00 49 1012.9
20260503225118 53 311 1.7 3.5 0.00 0.00 0.00 49 1012.9
20260503224618 53 272 2.6 4.3 0.00 0.00 0.00 51 1012.9
20260503224118 52 298 2.6 4.3 0.00 0.00 0.00 51 1012.7
20260503223617 52 289 0.9 1.7 0.00 0.00 0.00 50 1012.8
20260503223118 53 288 4.3 6.1 0.00 0.00 0.00 49 1012.8
20260503222618 53 288 3.5 5.2 0.00 0.00 0.00 49 1012.8
20260503222117 53 305 1.7 7.0 0.00 0.00 0.00 49 1012.8
20260503221617 54 285 4.3 7.0 0.00 0.00 0.00 48 1012.8
20260503221118 54 296 3.5 5.2 0.00 0.00 0.00 47 1012.8
20260503220618 53 299 1.7 4.3 0.00 0.00 0.00 50 1012.9
20260503220117 53 282 3.5 5.2 0.00 0.00 0.00 49 1012.9
20260503215618 54 296 2.6 6.1 0.00 0.00 0.00 49 1012.9
20260503215118 55 309 2.6 5.2 0.00 0.00 0.00 48 1012.7
20260503214617 54 258 2.6 3.5 0.00 0.00 0.00 47 1012.9
20260503214117 53 259 2.6 4.3 0.00 0.00 0.00 50 1012.8
20260503213618 53 305 4.3 7.8 0.00 0.00 0.00 50 1012.7
20260503213117 54 289 2.6 4.3 0.00 0.00 0.00 49 1012.6
20260503212618 53 284 4.3 7.8 0.00 0.00 0.00 48 1012.7
20260503212118 53 270 2.6 3.5 0.00 0.00 0.00 49 1012.7
20260503211618 54 244 3.5 4.3 0.00 0.00 0.00 48 1012.6
20260503211118 54 315 2.6 4.3 0.00 0.00 0.00 48 1012.6
20260503210617 53 278 1.7 5.2 0.00 0.00 0.00 48 1012.7
20260503210119 53 311 3.5 6.1 0.00 0.00 0.00 48 1012.2
20260503205618 54 307 4.3 7.8 0.00 0.00 0.00 48 1012.5
20260503205117 54 255 2.6 3.5 0.00 0.00 0.00 48 1012.5
20260503204617 54 305 4.3 10.4 0.00 0.00 0.00 48 1012.6
20260503204118 54 271 1.7 5.2 0.00 0.00 0.00 48 1012.8
20260503203618 53 309 3.5 10.4 0.00 0.00 0.00 50 1012.5
20260503203118 53 267 2.6 5.2 0.00 0.00 0.00 49 1012.5
20260503202617 53 262 3.5 5.2 0.00 0.00 0.00 50 1012.6
20260503202117 53 296 3.5 4.3 0.00 0.00 0.00 50 1012.6
20260503201617 53 285 4.3 7.0 0.00 0.00 0.00 49 1012.7
20260503201118 54 305 3.5 7.8 0.00 0.00 0.00 48 1012.6
20260503200617 53 309 4.3 7.0 0.00 0.00 0.00 48 1012.8
20260503200118 53 315 5.2 7.8 0.00 0.00 0.00 49 1012.6
20260503195617 53 312 4.3 5.2 0.00 0.00 0.00 49 1012.8
20260503195117 53 319 4.3 7.0 0.00 0.00 0.00 50 1012.8
20260503194617 53 278 3.5 7.0 0.00 0.00 0.00 49 1012.8
20260503194117 53 324 3.5 5.2 0.00 0.00 0.00 50 1012.8
20260503193618 53 327 3.5 9.6 0.00 0.00 0.00 49 1013.0
20260503193118 53 339 1.7 2.6 0.00 0.00 0.00 50 1013.3
20260503192617 52 283 4.3 7.0 0.00 0.00 0.00 49 1012.9
20260503192117 51 299 5.2 7.8 0.00 0.00 0.00 49 1013.1
20260503191617 52 314 3.5 6.1 0.00 0.00 0.00 50 1013.1
20260503191117 53 328 5.2 9.6 0.00 0.00 0.00 48 1013.3
20260503190617 52 300 5.2 9.6 0.00 0.00 0.00 49 1013.3
20260503190117 52 308 2.6 4.3 0.00 0.00 0.00 49 1013.3
20260503185618 51 306 4.3 7.8 0.00 0.00 0.00 49 1013.4
20260503185118 51 311 4.3 9.6 0.00 0.00 0.00 50 1013.1
20260503184619 51 312 5.2 12.2 0.00 0.00 0.00 51 1013.1
20260503184118 52 335 5.2 9.6 0.00 0.00 0.00 49 1013.4
20260503183617 52 315 4.3 7.0 0.00 0.00 0.00 50 1013.5
20260503183119 52 308 3.5 5.2 0.00 0.00 0.00 49 1013.4
20260503182619 52 237 1.7 2.6 0.00 0.00 0.00 50 1013.4
20260503182117 52 244 1.7 3.5 0.00 0.00 0.00 49 1013.4
20260503181618 52 342 4.3 7.0 0.00 0.00 0.00 49 1013.4
20260503181117 51 274 3.5 7.0 0.00 0.00 0.00 48 1013.5
20260503180618 51 299 2.6 3.5 0.00 0.00 0.00 49 1013.6
20260503180118 50 332 3.5 6.1 0.00 0.00 0.00 50 1013.5
20260503175618 50 320 3.5 6.1 0.00 0.00 0.00 51 1013.6
20260503175118 50 316 3.5 5.2 0.00 0.00 0.00 52 1013.6
20260503174617 50 328 4.3 8.7 0.00 0.00 0.00 50 1013.7
20260503174118 50 325 3.5 6.1 0.00 0.00 0.00 50 1013.7
20260503173617 49 258 2.6 4.3 0.00 0.00 0.00 51 1013.8
20260503173118 49 340 2.6 4.3 0.00 0.00 0.00 51 1013.9
20260503172617 49 278 2.6 4.3 0.00 0.00 0.00 52 1013.8
20260503172117 49 285 4.3 7.0 0.00 0.00 0.00 51 1013.9
20260503171617 48 288 3.5 6.1 0.00 0.00 0.00 53 1013.8
20260503171117 48 328 3.5 5.2 0.00 0.00 0.00 52 1014.0
20260503170617 48 315 3.5 7.0 0.00 0.00 0.00 53 1014.0
20260503170118 49 341 2.6 3.5 0.00 0.00 0.00 53 1014.2
20260503160117 46 309 3.5 4.3 0.00 0.00 0.00 56 1014.5
20260503150618 44 347 2.6 5.2 0.00 0.00 0.00 59 1014.6
20260503150118 43 294 3.5 11.3 0.00 0.00 0.00 59 1014.5
20260503140117 40 307 3.5 6.1 0.00 0.00 0.00 68 1014.9
20260503131118 38 328 3.5 5.2 0.00 0.00 0.00 71 1014.8
20260503130618 37 322 5.2 7.0 0.00 0.00 0.00 73 1014.8
20260503130118 37 320 3.5 6.1 0.00 0.00 0.00 77 1014.9
20260503120117 35 302 2.6 5.2 0.00 0.00 0.00 86 1014.8
20260503110618 33 324 0.9 1.7 0.00 0.00 0.00 90 1014.5
20260503110118 32 317 3.5 5.2 0.00 0.00 0.00 91 1014.5
20260503100117 33 308 1.7 2.6 0.00 0.00 0.00 90 1013.9
20260503090117 33 309 3.5 5.2 0.00 0.00 0.00 87 1013.7
20260503081618 33 326 3.5 5.2 0.00 0.00 0.00 89 1013.5
20260503081118 33 334 4.3 7.8 0.00 0.00 0.00 88 1013.4
20260503080618 33 326 2.6 4.3 0.00 0.00 0.00 89 1013.4
20260503080117 33 327 3.5 7.0 0.00 0.00 0.00 91 1013.5
20260503072617 34 338 2.6 4.3 0.00 0.00 0.00 90 1013.3
20260503072118 34 335 2.6 6.1 0.00 0.00 0.00 90 1013.3
20260503071617 34 327 3.5 5.2 0.00 0.00 0.00 90 1013.1
20260503071117 34 337 2.6 7.0 0.00 0.00 0.00 90 1013.3
20260503070617 35 329 2.6 5.2 0.00 0.00 0.00 90 1013.3
20260503070118 35 320 3.5 5.2 0.00 0.00 0.00 89 1013.3
20260503060117 36 340 3.5 7.0 0.00 0.00 0.00 85 1013.4
20260503055117 36 342 1.7 1.7 0.00 0.00 0.00 84 1013.5
20260503054617 36 321 4.3 7.0 0.00 0.00 0.00 83 1013.5
20260503054117 36 322 3.5 5.2 0.00 0.00 0.00 84 1013.5
20260503053617 36 342 3.5 4.3 0.00 0.00 0.00 84 1013.6